Buffalo, SD

4:49 PM MST on December 11, 2017 (GMT -0700)
Buffalo

Weather History for K2WX - December, 2012

Change the Weather History Date:

Thursday, December 6, 2012

  Actual Average Record
Temperature  
Mean Temperature 35 °F 22 °F  
Max Temperature 41 °F 33 °F 53 °F (2003)
Min Temperature 28 °F 12 °F -24 °F (2013)
Degree Days  
Heating Degree Days 30 42  
Month to date heating degree days 143 250  
Since 1 July heating degree days 1843 2148  
Cooling Degree Days 0 0  
Month to date cooling degree days 0 0  
Year to date cooling degree days 853 513  
Moisture  
Dew Point 15 °F    
Average Humidity 47    
Maximum Humidity 63    
Minimum Humidity 30    
Precipitation  
Precipitation 0.00 in 0.01 in 0.03 in (2008)
Month to date precipitation 0.00 0.04  
Year to date precipitation 8.28 14.27  
Sea Level Pressure  
Sea Level Pressure 29.96 in    
Wind  
Wind Speed 10 mph (West)    
Max Wind Speed 25 mph    
Max Gust Speed 31 mph    
T = Trace of Precipitation, MM = Missing Value Source: NWS Daily Summary

Daily Weather History Graph

Daily Weather History Graph

Search for Another Location

Airport or City:

Trip Planner

Search our weather history database for the weather conditions in past years. The results will help you decide how hot, cold, wet, or windy it might be!

Date:

Astronomy

Dec. 06, 2012 Rise Set
Actual Time 7:20 AM MST 4:10 PM MST
Civil Twilight 6:46 AM MST 4:44 PM MST
Nautical Twilight 6:08 AM MST 5:21 PM MST
Astronomical Twilight 5:32 AM MST 5:57 PM MST
Moon No Moon Rise 11:56 AM MST (12/6)
Length of Visible Light 9h 58m
Length of Day
8h 50m
Waning Gibbous, 48% of the Moon is Illuminated
Dec 6
Waning Gibbous
Dec 13
New
Dec 19
First Quarter
Dec 28
Full
Jan 4
Last Quarter

Hourly Weather History & Observations

Time (MST) Temp. Windchill Dew Point Humidity Pressure Visibility Wind Dir Wind Speed Gust Speed Precip Events Conditions
12:56 AM 30.9 °F 20.7 °F 19.0 °F 61% 29.94 in - West 13.8 mph - N/A   Unknown
1:56 AM 30.0 °F 20.5 °F 15.1 °F 54% 29.94 in - West 11.5 mph - N/A   Unknown
2:56 AM 33.1 °F 23.0 °F 15.1 °F 48% 29.93 in - West 15.0 mph - N/A   Unknown
3:56 AM 35.1 °F 23.3 °F 14.0 °F 42% 29.92 in - WNW 23.0 mph 31.1 mph N/A   Unknown
4:56 AM 33.1 °F 20.6 °F 14.0 °F 46% 29.95 in - WNW 23.0 mph - N/A   Unknown
5:56 AM 30.9 °F 21.2 °F 14.0 °F 50% 29.97 in - NW 12.7 mph - N/A   Unknown
6:56 AM 28.9 °F 19.2 °F 12.9 °F 51% 29.99 in - WNW 11.5 mph - N/A   Unknown
7:56 AM 28.9 °F 19.8 °F 14.0 °F 54% 30.01 in - WNW 10.4 mph - N/A   Unknown
8:56 AM 28.9 °F 21.1 °F 15.1 °F 56% 30.02 in - West 8.1 mph - N/A   Unknown
9:56 AM 33.1 °F 27.7 °F 16.0 °F 50% 30.02 in - WSW 5.8 mph - N/A   Unknown
10:56 AM 37.0 °F 29.3 °F 12.9 °F 37% 30.02 in - West 11.5 mph - N/A   Unknown
11:56 AM 37.9 °F 31.5 °F 10.9 °F 33% 29.99 in - West 9.2 mph - N/A   Unknown
12:56 PM 39.0 °F 31.8 °F 12.0 °F 33% 29.98 in - WSW 11.5 mph - N/A   Unknown
1:56 PM 41.0 °F 34.7 °F 12.0 °F 31% 29.95 in - WSW 10.4 mph - N/A   Unknown
2:56 PM 39.9 °F 32.9 °F 10.9 °F 31% 29.94 in - WSW 11.5 mph - N/A   Unknown
3:56 PM 34.0 °F 27.2 °F 12.0 °F 40% 29.95 in - WSW 8.1 mph - N/A   Unknown
4:56 PM 33.1 °F 30.0 °F 12.0 °F 42% 29.94 in - SW 3.5 mph - N/A   Unknown
5:56 PM 32.0 °F 27.5 °F 12.9 °F 45% 29.95 in - West 4.6 mph - N/A   Unknown
6:56 PM 33.1 °F 30.0 °F 15.1 °F 48% 29.95 in - West 3.5 mph - N/A   Unknown
7:56 PM 34.0 °F 26.6 °F 17.1 °F 50% 29.95 in - West 9.2 mph - N/A   Unknown
8:56 PM 35.1 °F 27.4 °F 21.9 °F 59% 29.94 in - West 10.4 mph - N/A   Unknown
9:56 PM 33.1 °F 26.9 °F 19.9 °F 59% 29.92 in - SW 6.9 mph - N/A   Unknown
10:56 PM 32.0 °F 26.4 °F 21.0 °F 64% 29.90 in - SW 5.8 mph - N/A   Unknown
11:56 PM 32.0 °F 28.7 °F 23.0 °F 69% 29.89 in - WSW 3.5 mph - N/A   Unknown